RH
27 25 26 32 52 96 100 100 100 100 100 91 69 58 91 92 90 83 75 76 68 60 60 58 58 56 51 48 44 48 52 52 50 44 42 44 47 43 38 35 34 36 37 37 40 41 41 42 39
30 28 26 25 26 67 100 100 100 100 100 90 74 76 91 100 91 78 74 76 72 64 60 64 61 59 56 54 49 46 53 62 63 54 49 48 53 52 45 42 40 39 38 36 35 38 41 42 41
26 28 28 25 23 31 75 100 100 100 100 97 71 72 84 99 95 80 77 73 72 66 61 57 61 61 57 61 59 55 56 65 68 64 56 60 61 59 56 52 49 48 46 45 43 45 48 44 46
24 24 22 26 23 26 29 56 100 100 100 100 83 80 71 96 94 98 80 82 75 70 64 61 58 56 62 69 62 59 74 76 79 70 65 65 74 75 70 64 66 59 54 54 59 55 60 57 54
19 23 20 21 26 28 27 25 44 100 100 100 100 88 80 75 91 91 94 89 84 81 76 69 61 60 63 63 59 72 82 97 80 64 63 71 74 71 75 75 71 61 63 61 62 62 59 62 62
17 19 18 18 27 34 34 24 24 76 100 100 100 97 83 92 80 89 94 99 96 95 90 77 74 69 71 74 86 98 99 100 95 66 73 89 82 79 72 72 66 67 65 66 67 64 64 65 62
16 17 19 20 21 36 38 29 22 33 89 100 100 100 92 75 90 73 80 92 97 99 98 95 84 81 83 98 96 93 100 100 98 88 84 81 92 82 70 72 68 70 65 65 61 66 62 58 63
17 15 17 19 20 27 38 34 25 25 38 88 100 100 100 94 85 84 70 66 70 82 93 91 98 99 93 100 95 78 91 99 100 97 79 87 88 86 77 74 70 67 68 70 64 67 70 71 64
13 14 14 16 18 22 32 34 28 25 24 27 47 97 100 100 94 94 79 73 63 63 79 100 100 100 88 93 99 92 87 88 88 82 86 93 81 87 83 74 75 73 72 73 72 73 64 56 61
13 12 13 15 16 21 25 29 31 30 26 24 26 42 81 96 97 95 88 81 72 76 87 99 81 77 79 82 97 100 98 87 74 79 84 88 87 88 81 79 74 70 71 72 67 68 71 79 84
19 16 14 14 16 21 24 24 26 30 29 26 26 28 33 47 58 78 82 90 74 100 100 100 95 82 60 68 86 89 91 83 80 81 82 88 88 87 80 82 80 80 69 69 76 75 80 80 80
16 19 18 13 14 20 21 20 24 26 31 31 27 26 24 25 24 26 47 81 82 88 95 100 97 92 63 59 62 67 75 83 91 91 91 90 82 84 83 81 78 74 83 86 75 68 72 73 64
12 15 19 18 17 18 18 19 21 24 30 33 26 23 23 26 26 24 24 29 42 73 72 86 99 98 78 75 84 90 91 88 89 84 78 80 77 74 76 76 72 79 71 68 74 75 75 60 36
10 13 15 20 20 18 18 17 19 22 25 30 26 25 28 23 27 25 26 24 26 43 64 72 80 98 86 85 90 92 98 93 82 78 67 70 71 68 77 80 81 71 68 75 76 64 39 20 18
10 12 12 16 20 24 18 16 18 22 22 27 32 34 41 51 22 22 26 27 26 27 30 48 84 74 73 80 94 94 100 95 82 79 66 59 64 70 67 75 81 86 65 39 31 25 19 18 18
11 10 11 15 18 24 22 16 16 20 22 34 29 35 55 62 87 46 25 22 31 34 25 36 44 59 60 68 78 93 88 81 69 67 67 59 70 74 86 87 68 36 28 25 23 20 20 21 20
11 11 12 13 17 20 22 21 15 18 20 20 23 29 39 54 83 83 84 50 23 36 32 34 42 40 44 61 82 92 86 81 80 86 86 99 98 87 51 39 33 28 24 22 21 24 25 23 23
8 12 13 13 16 19 22 24 20 17 19 19 20 23 36 56 84 100 100 95 49 47 47 32 27 31 40 50 48 47 83 92 94 96 79 60 50 40 32 31 29 26 23 23 28 31 32 29 25
8 9 14 14 15 18 20 26 25 24 20 19 18 21 22 30 100 100 71 80 89 75 49 35 28 30 33 48 42 38 31 31 37 37 34 33 34 32 32 31 30 26 24 28 32 34 33 32 30
8 8 12 14 15 17 19 22 27 27 26 25 24 29 30 59 61 99 59 78 100 100 61 32 31 31 30 37 49 45 30 30 32 33 32 33 32 32 34 34 31 32 31 33 36 34 39 39 38
8 9 11 16 15 17 18 20 26 27 29 34 41 46 39 46 52 43 51 59 100 100 100 59 36 32 30 40 47 56 35 33 34 34 35 39 39 39 40 42 42 41 38 35 36 38 41 42 38
9 9 11 17 16 16 18 19 23 26 28 33 38 32 32 52 68 53 43 66 98 100 78 48 34 33 37 46 44 63 48 43 42 41 42 44 50 53 52 49 45 43 42 41 40 41 44 43 40
12 11 12 17 16 17 17 19 21 25 26 26 31 35 44 55 50 35 37 50 63 62 43 33 36 33 45 62 81 90 78 65 59 53 50 49 54 59 63 64 62 56 52 52 49 47 43 52 48
12 13 12 15 18 16 17 18 19 22 24 26 27 32 48 55 60 39 46 54 50 41 33 28 29 30 42 77 95 100 96 94 87 75 66 62 65 74 79 72 70 65 63 56 51 48 50 51 44
11 13 13 12 15 19 18 18 19 20 22 24 25 27 36 52 50 53 58 60 55 47 38 29 29 35 39 58 82 95 99 93 87 87 82 80 80 83 83 88 82 66 60 56 57 56 62 58 52
12 11 11 13 14 17 19 19 21 20 21 24 25 25 29 40 50 53 56 55 59 61 52 44 41 45 42 48 84 98 100 96 79 80 78 80 88 87 94 91 71 65 66 64 76 77 65 66 58
15 16 12 12 12 12 18 20 22 24 22 23 26 26 27 31 39 48 46 46 48 55 62 63 59 72 85 98 100 100 100 99 89 86 96 96 99 100 99 86 79 86 82 87 87 70 70 72 67
22 20 17 15 13 14 14 17 21 23 24 28 29 29 30 31 33 44 43 44 46 49 60 67 64 67 91 98 91 88 100 100 90 91 99 100 96 98 94 93 96 94 97 82 80 84 75 57 58
45 35 24 19 15 13 14 15 18 24 25 27 32 35 39 38 36 42 51 45 44 44 52 65 64 61 60 63 74 89 82 93 100 97 93 97 93 87 95 92 85 88 85 90 83 67 68 83 89
46 49 58 36 21 19 16 16 18 20 29 30 33 37 39 44 42 39 44 45 43 46 49 52 62 62 63 69 76 88 100 100 95 86 82 83 97 94 87 92 98 100 89 68 65 74 84 92 97
Wind_Speed
51 47 46 45 43 41 36 37 35 35 39 40 43 43 42 40 40 39 38 37 36 34 31 29 29 27 25 25 25 25 26 26 27 28 27 27 26 27 26 26 26 24 24 23 24 25 27 29 30
58 54 51 47 43 41 40 39 40 41 40 42 43 42 43 41 41 41 40 41 40 38 34 33 32 32 30 30 28 27 28 29 30 30 30 28 28 28 28 27 28 29 28 29 28 27 29 30 32
63 62 58 51 44 40 44 46 41 41 42 43 43 44 42 41 39 41 42 43 42 40 38 36 36 36 35 33 32 31 31 31 31 32 33 32 30 30 29 29 30 31 31 32 34 33 34 34 35
72 68 64 55 47 46 48 47 45 43 44 43 42 45 46 43 42 42 44 44 43 43 42 40 39 38 37 38 37 35 32 32 32 34 35 34 33 33 32 32 32 33 34 35 37 38 37 38 40
80 73 69 57 52 51 54 49 45 46 44 46 43 45 43 45 44 42 45 45 44 43 42 42 41 40 39 38 38 36 34 34 34 36 37 37 36 36 36 36 36 36 37 39 40 41 42 43 45
83 79 70 60 56 59 59 54 47 47 48 48 47 45 44 46 47 44 43 42 43 41 39 39 38 39 37 36 35 36 37 37 38 39 37 40 39 38 38 39 40 40 40 41 42 42 43 46 46
87 82 74 68 64 65 65 61 53 51 51 50 49 47 45 44 46 50 49 45 44 42 40 39 37 37 35 35 37 38 38 39 40 41 41 41 39 40 40 41 42 42 41 42 43 45 45 46 48
90 85 80 75 69 69 71 68 61 56 53 52 51 45 49 48 46 47 48 51 50 46 43 40 38 38 38 35 39 39 39 41 42 43 44 40 38 39 41 41 42 43 43 45 45 47 49 50 51
93 90 84 79 76 74 78 72 67 61 58 54 51 53 50 47 48 48 46 45 47 47 44 42 42 43 41 39 39 41 42 43 45 45 45 42 40 40 40 40 42 43 45 47 49 51 51 52 51
93 88 87 83 81 81 82 78 73 67 63 58 53 52 51 49 48 48 48 45 45 45 46 45 46 46 44 42 42 43 45 45 47 46 46 44 43 42 42 42 44 44 46 49 51 50 50 51 53
98 88 87 89 86 86 86 83 77 71 66 63 61 58 55 53 51 48 45 46 43 43 45 46 47 47 48 45 46 46 47 49 49 48 46 44 44 44 45 45 46 47 49 51 50 51 54 56 57
97 94 90 88 90 92 89 86 80 72 68 69 65 59 54 54 50 46 45 47 47 48 44 48 49 49 49 46 43 45 46 46 46 45 45 44 45 45 45 48 50 50 50 51 55 56 56 58 61
96 94 96 91 88 93 93 89 83 75 72 73 65 59 56 54 54 50 49 49 49 49 50 51 50 50 46 45 45 43 43 44 43 44 44 45 45 47 48 49 51 52 53 55 57 58 58 61 63
95 95 96 96 90 90 96 92 86 81 76 72 68 60 59 56 57 54 52 51 49 49 47 47 51 51 48 46 44 42 43 44 45 45 46 47 48 50 50 50 53 55 56 57 59 60 60 60 60
93 94 94 96 97 94 92 94 87 86 80 73 69 66 64 58 58 57 58 55 53 53 49 47 50 50 51 49 47 46 45 46 48 48 50 51 51 52 52 53 54 56 56 56 58 59 57 59 59
97 91 93 95 97 99 93 88 91 89 84 75 74 71 67 60 63 61 60 60 59 56 53 50 50 47 47 50 51 49 50 50 52 53 54 53 53 53 54 56 57 54 55 56 56 58 59 60 62
93 96 94 95 95 101 94 88 90 90 87 80 77 75 71 69 63 62 63 62 62 57 55 51 52 50 50 49 49 50 51 52 52 53 54 55 56 58 57 57 56 56 55 56 56 58 61 63 64
80 96 99 95 96 97 95 92 85 88 87 85 81 78 73 71 62 65 63 60 60 60 59 56 52 52 52 51 49 48 50 51 52 55 55 57 57 56 57 57 57 56 55 55 57 59 61 65 67
68 88 102 100 98 96 94 96 90 84 84 84 82 81 81 75 56 52 72 69 65 64 64 58 56 54 52 52 52 52 53 53 53 54 56 56 56 57 57 57 57 57 57 58 60 62 66 70 71
61 76 94 103 100 97 96 96 93 86 80 77 78 75 81 77 81 78 71 67 65 65 66 63 59 57 56 56 56 55 55 54 55 56 57 57 58 59 59 59 59 59 59 62 63 67 69 73 76
55 68 86 100 100 99 99 97 96 89 84 80 77 77 78 77 80 83 84 81 68 67 70 68 65 61 60 60 58 59 58 56 57 58 59 59 60 61 61 62 62 64 66 69 70 72 73 74 76
51 61 78 94 97 95 95 94 94 92 87 83 79 75 71 72 70 86 81 81 77 73 75 71 68 66 62 62 63 62 60 59 60 61 62 61 61 62 65 67 68 71 73 74 75 76 75 76 78
49 57 69 89 95 95 93 96 94 92 89 83 80 76 71 72 74 76 78 78 76 75 73 72 69 67 65 63 62 62 61 62 63 64 65 65 65 67 69 71 73 75 76 77 79 79 80 77 79
45 54 63 80 94 93 91 91 92 89 86 87 84 80 77 76 72 69 64 66 73 75 73 75 73 70 68 67 66 66 65 65 67 68 69 69 70 71 72 76 78 79 79 81 81 83 83 83 84
35 46 54 64 82 92 93 89 90 87 87 87 84 80 79 76 71 66 60 61 65 68 71 73 73 70 70 69 70 70 70 71 73 73 72 73 74 75 77 77 79 81 83 84 85 86 86 87 89
25 35 47 55 67 84 92 91 89 85 83 84 83 78 78 77 72 69 66 64 61 63 66 70 69 70 71 71 71 73 75 77 78 77 77 77 78 79 79 81 83 86 86 86 88 88 92 93 94
8 17 34 45 56 67 82 88 92 89 83 79 79 77 76 75 73 70 70 65 67 65 63 64 66 68 69 71 76 79 80 80 80 78 78 79 79 81 82 84 87 88 89 90 92 95 97 98 99
10 9 18 32 42 50 62 78 88 90 85 79 76 76 75 74 73 72 69 68 66 67 67 65 64 70 74 77 79 79 78 80 81 80 80 80 82 84 86 87 90 92 93 96 99 99 101 98 96
26 19 10 16 26 37 45 57 73 83 84 80 78 77 74 72 73 73 72 71 68 66 68 69 68 68 71 73 75 77 78 77 78 81 83 84 87 89 90 93 96 97 99 101 100 98 93 89 86
36 29 19 12 14 20 27 37 50 67 78 85 84 83 80 77 76 74 73 71 69 69 68 69 70 71 72 75 76 77 78 81 83 85 87 89 91 93 96 98 101 102 101 100 92 89 87 86 86
Wind_Direction
232 229 229 229 224 222 231 229 228 221 229 230 232 230 232 235 235 234 233 230 233 235 237 240 238 239 252 259 264 270 274 277 281 286 288 292 296 299 302 304 305 303 297 298 301 303 300 303 308
235 230 228 228 227 221 224 225 226 226 226 229 228 226 227 231 238 234 233 232 233 236 234 236 237 241 251 257 265 268 269 273 278 282 286 288 290 294 296 299 300 302 301 301 305 308 304 304 305
233 234 229 226 225 221 228 222 221 223 225 229 230 224 224 226 228 231 230 232 235 236 236 237 239 243 250 253 260 266 269 270 274 280 286 288 291 292 294 295 297 299 299 302 304 308 308 307 307
232 231 230 227 222 221 227 225 218 221 227 228 231 229 225 222 223 228 230 229 234 238 240 240 243 246 249 253 260 262 267 267 271 277 284 287 290 291 292 292 295 296 298 301 304 305 306 305 306
231 230 231 222 222 223 227 226 221 222 225 227 230 232 231 227 227 226 232 231 234 238 240 243 246 248 250 254 260 260 264 263 268 276 280 285 288 288 288 290 291 294 299 300 302 301 303 306 307
235 229 229 226 222 223 227 226 221 221 225 226 227 230 230 233 232 228 226 231 232 235 239 241 244 246 251 255 255 260 261 263 267 275 283 286 289 291 290 291 292 295 295 298 301 302 303 305 306
236 232 227 226 222 223 227 227 222 219 223 227 228 228 230 232 237 235 229 230 232 235 239 241 243 248 252 252 253 258 263 264 267 274 281 287 288 289 290 293 293 296 296 300 302 306 306 308 310
233 232 227 224 223 224 226 224 223 220 220 224 229 230 232 235 235 239 241 237 236 234 237 242 245 248 249 249 253 258 263 264 269 273 281 286 287 289 291 294 296 297 302 302 305 308 309 308 306
229 227 227 224 223 224 226 224 222 221 220 222 225 229 231 235 237 237 242 245 245 242 240 242 243 247 249 249 254 261 265 267 271 276 281 284 287 290 291 294 297 300 302 304 305 305 307 308 310
230 225 224 223 221 224 226 225 219 220 222 221 223 228 232 233 235 238 241 243 247 247 245 243 245 246 250 250 254 261 265 269 274 280 282 284 287 291 293 295 298 299 300 302 305 307 308 308 306
230 227 222 221 221 223 224 225 221 218 222 222 222 224 228 233 237 239 241 242 244 244 246 249 250 249 251 254 257 260 265 271 275 280 282 285 288 291 294 298 300 299 301 305 307 307 306 307 308
228 225 224 221 220 222 223 225 222 218 220 224 223 225 228 234 239 243 243 245 243 243 249 251 253 254 255 260 263 265 269 274 277 280 286 287 288 292 295 296 299 301 304 305 307 309 307 307 309
225 223 223 221 218 220 221 223 222 218 218 224 224 224 228 232 238 242 244 246 248 247 248 253 256 258 259 262 267 270 273 275 280 283 286 288 289 293 296 297 298 301 304 308 310 308 309 310 311
224 222 221 220 219 219 220 220 219 220 218 221 224 227 230 231 238 242 245 249 253 253 253 255 259 259 259 262 268 272 277 279 281 283 287 290 291 295 296 298 298 301 305 308 307 306 309 311 313
222 221 219 217 218 220 221 218 218 221 220 218 223 226 231 233 238 241 245 249 251 255 256 256 258 259 260 262 267 270 275 279 283 286 288 289 292 292 295 296 300 301 305 306 305 307 308 311 313
221 219 217 217 217 218 221 218 218 221 221 219 222 225 229 235 243 245 246 247 250 254 257 255 260 262 262 263 265 269 272 277 280 283 285 289 290 292 293 295 299 303 304 304 305 307 310 312 314
216 217 217 216 214 217 218 220 218 219 222 221 222 225 228 232 239 244 248 248 247 251 251 253 256 261 264 265 266 269 273 277 279 282 285 287 288 291 295 297 300 301 303 305 306 309 310 312 312
212 214 214 215 214 214 215 219 218 219 222 223 224 225 226 232 237 243 246 244 247 247 248 252 256 260 262 266 268 271 272 274 278 281 284 287 289 291 294 298 300 302 303 305 305 306 309 310 312
209 210 211 213 215 213 213 216 218 219 221 223 225 226 226 228 221 225 241 247 248 247 249 251 255 259 263 266 269 271 273 276 279 282 284 286 289 292 296 298 300 300 301 303 305 306 308 309 312
208 209 210 210 212 213 213 214 217 218 218 221 224 225 227 227 229 231 240 244 245 246 246 251 256 262 264 267 269 271 274 277 280 281 284 287 289 292 295 296 298 298 298 300 303 305 307 309 312
206 207 207 208 210 211 212 214 214 215 217 218 219 222 225 226 229 233 238 241 240 243 249 250 256 262 263 265 268 271 274 277 279 281 283 286 289 291 293 294 296 297 299 300 302 304 306 308 310
205 206 206 206 208 212 212 213 215 215 217 218 221 225 226 226 227 229 234 237 240 244 250 253 255 260 262 264 268 269 272 275 278 281 283 286 288 290 292 293 295 296 298 300 302 302 305 306 310
203 204 204 206 208 210 212 212 213 215 217 219 221 223 223 226 227 231 233 237 242 246 248 251 256 259 262 264 266 268 273 276 279 280 282 284 286 289 292 293 295 297 299 300 302 302 304 306 308
202 203 206 205 208 210 213 212 214 214 216 218 219 220 221 225 230 234 234 237 244 248 251 253 255 257 258 261 265 268 272 276 279 280 282 284 287 289 291 293 296 298 299 300 301 303 303 305 307
205 207 206 207 210 211 212 214 216 215 216 218 220 221 223 228 230 235 239 242 246 249 251 254 257 259 261 262 266 269 272 275 278 280 282 285 287 290 292 294 296 296 298 299 300 302 303 305 307
211 209 208 207 208 212 214 214 217 217 219 220 222 223 224 227 229 232 238 242 248 253 255 257 260 262 264 265 268 271 274 277 279 280 282 285 288 290 293 294 294 295 296 299 299 301 302 304 306
190 207 211 211 211 212 214 216 217 217 219 221 224 226 228 228 231 234 238 242 246 251 257 261 264 265 266 267 269 272 277 277 279 282 285 287 289 290 291 291 293 294 296 298 299 301 302 303 304
103 149 191 209 212 214 216 216 219 220 219 222 224 227 230 231 233 237 240 244 248 251 255 259 265 266 266 268 271 274 275 277 280 283 285 286 288 289 290 290 292 294 296 298 299 300 300 302 302
61 78 121 184 203 211 214 216 218 220 221 221 224 227 231 234 237 238 243 246 249 253 255 258 263 267 270 272 274 275 277 279 281 282 284 284 286 288 289 290 293 294 295 296 297 298 299 298 299
58 73 79 100 162 188 204 211 214 217 219 223 224 228 231 234 238 240 243 247 250 255 259 262 264 268 270 271 272 275 277 278 280 281 284 286 287 289 290 291 292 293 292 292 293 294 295 295 294